Find Starlink 33726

NORAD ID: 63437 Int'l Des: 2025-069 Owner: SPXS Country: US Constellation: starlink operational
LEOCIRCULAR

当前视图

正在加载3D地球...

About Starlink 33726

Starlink 33726 (NORAD 63437) is a starlink constellation satellite (v2 mini) launched Apr 4, 2025 by SPXS of US. It operates in LEO, CIRCULAR orbit with a mass of 575.00 kg.

关于 Starlink 33726

正在加载描述...

即将过境

Passes for default location (London). Set your location on the main map for personalized predictions.

高度历史

Loading altitude history...

两行轨道根数

1 63437U 25069E 26168.90370395 -.00010243 00000-0 -17645-3 0 9992
2 63437 53.1594 31.6114 0001081 71.3346 288.7781 15.49293032 68779
Epoch: Jun 17, 2026 • Age: 24 hours

当前状态

高度 419.3 km
速度 7.66 km/s
星下点 6.27°N, 29.77°W
发射日期 Apr 4, 2025
运行时间 1.2 years
类型 internet

技术详情

分类 Payload
质量 575.00 kg
干质量 530.00 kg
总质量 575.00 kg
长度 0.30 m
直径 4.10 m
跨度 29.00 m
形状 Box + pan
制造商 SPXS
平台类型 Starlink V2MO
阶段状态 In Orbit
所有者/国家 SPXS/US

Most Searched